This is the latest recevied weather packets stored in our database for station/object N1LJK-13. If no packets are shown the sender has not sent any weather packets the latest 1 day(s).
| Time | Temp. | Humidity | Pressure | Rain* | Wind** | Luminosity | Snow |
|---|---|---|---|---|---|---|---|
| 1836274669 | 11.11° C | 98% | 1021.9 hPa | 0 mm | 0 m/s | - | - |
| 1778047532 | 11.67° C | 98% | 1010.6 hPa | 0 mm | 2.68 m/s, 247° | - | - |
| 1778046331 | 11.67° C | 98% | 1010.6 hPa | 0 mm | 2.68 m/s, 248° | - | - |
| 1778045164 | 11.67° C | 98% | 1010.8 hPa | 0 mm | 2.68 m/s, 239° | - | - |
| 1778045131 | 11.67° C | 98% | 1010.8 hPa | 0 mm | 2.68 m/s, 239° | - | - |
| 1778042731 | 12.22° C | 98% | 1010.9 hPa | 0 mm | 2.68 m/s, 226° | - | - |
| 1778041531 | 11.67° C | 98% | 1010.8 hPa | 0 mm | 2.24 m/s, 242° | - | - |
| 1778040331 | 11.67° C | 98% | 1010.6 hPa | 0 mm | 1.79 m/s, 247° | - | - |
| 1778039145 | 11.67° C | 98% | 1010.6 hPa | 0 mm | 2.24 m/s, 231° | - | - |
| 1778037931 | 11.67° C | 98% | 1010.6 hPa | 0 mm | 1.79 m/s, 241° | - | - |
| 1778036731 | 12.22° C | 98% | 1010.6 hPa | 0 mm | 0.89 m/s, 231° | - | - |
| 1778035531 | 12.22° C | 98% | 1010.6 hPa | 0 mm | 2.24 m/s, 235° | - | - |
| 1778033131 | 13.33° C | 98% | 1010.7 hPa | 0 mm | 1.79 m/s, 240° | - | - |
| 1778031931 | 13.89° C | 98% | 1010.8 hPa | 0 mm | 2.68 m/s, 258° | - | - |
| 1778030731 | 13.89° C | 98% | 1010.6 hPa | 0 mm | 2.68 m/s, 256° | - | - |
| 1778029532 | 13.89° C | 98% | 1010.3 hPa | 0 mm | 2.24 m/s, 217° | - | - |
| 1778028331 | 13.89° C | 98% | 1009.8 hPa | 0 mm | 3.13 m/s, 244° | - | - |
| 1778027131 | 14.44° C | 98% | 1009.4 hPa | 0 mm | 2.24 m/s, 238° | - | - |
| 1778025932 | 14.44° C | 98% | 1009.4 hPa | 0 mm | 2.68 m/s, 244° | - | - |
| 1778024731 | 12.78° C | 98% | 1009.3 hPa | 0 mm | 2.68 m/s, 245° | - | - |
| 1778023531 | 13.89° C | 98% | 1007.8 hPa | 0 mm | 3.58 m/s, 263° | - | - |
| 1778022331 | 13.89° C | 98% | 1007.3 hPa | 0 mm | 3.13 m/s, 234° | - | - |
| 1778021131 | 13.89° C | 98% | 1007.2 hPa | 0 mm | 3.13 m/s, 230° | - | - |
| 1778019931 | 13.89° C | 98% | 1006.8 hPa | 0 mm | 3.58 m/s, 248° | - | - |
| 1778018731 | 13.33° C | 98% | 1006.9 hPa | 0 mm | 4.02 m/s, 254° | - | - |
* Rain latest hour (hover to see other rain measurements)
** Current wind speed in m/s (hover to see current wind gust speed)